Home   Weather   Mount Airy   Past weeks
Flag for USA

Past Weather in Mount Airy, North Carolina, USA — Yesterday and Last 2 Weeks

Now
64 °F

Clear.


Feels Like: 64 °F
Forecast: 83 / 57 °F
Wind: No wind

Location: Mount Airy/Surry County Airport

Current Time: May 21, 2019 at 2:48:46 am

Latest Report: May 21, 2019 at 2:00 am


Visibility: 10 mi

Pressure: 30.00 "Hg

Humidity: 74%

Dew Point: 55 °F

Location of Mount AiryLocation

Past Weather in Mount Airy — Graph

°F

Mount Airy Temperature Yesterday

Maximum temperature yesterday: 83 °F (at 4:00 pm)
Minimum temperature yesterday: 64 °F (at 11:35 pm)
Average temperature yesterday: 74 °F

High & Low Weather Summary for the Past Weeks

 TemperatureHumidityPressure
High87 °F (May 18, 2:15 pm)92% (May 13, 3:20 am)30.24 "Hg (May 13, 3:20 am)
Low43 °F (May 15, 6:00 am)27% (May 15, 2:00 pm)29.71 "Hg (May 12, 4:20 pm)
Average68 °F74%30.02 "Hg
* Reported May 6 1:00 am — May 21 1:40 am, Mount Airy. Weather by CustomWeather, © 2019

Note: Actual official high and low records may vary slightly from our data, if they occured in-between our weather recording intervals... More about our weather records

Advertising

Mount Airy Weather History for the Previous 24 Hours

Scroll right to see more
 ConditionsComfort  
Time TempWeatherWind HumidityBarometerVisibility
1:40 am
Tue, May 21
63 °FClear.No wind80%30.00 "Hg10 mi
1:20 am64 °FClear.No wind77%30.01 "Hg10 mi
1:10 am64 °FClear.No wind78%30.01 "Hg10 mi
1:00 am65 °FClear.No wind74%30.01 "Hg10 mi
12:40 am64 °FClear.No wind83%30.00 "Hg10 mi
12:15 am62 °FClear.No wind87%30.00 "Hg10 mi
12:00 am64 °FClear.No wind85%30.00 "Hg10 mi
11:35 pm
Mon, May 20
64 °FClear.No wind84%30.00 "Hg10 mi
11:20 pm67 °FClear.No wind79%30.00 "Hg10 mi
11:00 pm67 °FClear.No wind79%30.00 "Hg10 mi
10:40 pm69 °FClear.No wind77%29.99 "Hg10 mi
10:20 pm71 °FClear.No wind69%29.99 "Hg10 mi
10:00 pm72 °FPassing clouds.No wind65%29.99 "Hg10 mi
9:15 pm75 °FClear.No wind58%29.98 "Hg10 mi
9:00 pm76 °FClear.No wind57%29.97 "Hg10 mi
8:20 pm77 °FSunny.No wind55%29.96 "Hg10 mi
8:00 pm79 °FScattered clouds.No wind59%29.95 "Hg10 mi
7:40 pm80 °FScattered clouds.5 mph67%29.95 "Hg10 mi
7:20 pm80 °FSunny.No wind65%29.95 "Hg10 mi
7:00 pm81 °FSunny.3 mph64%29.95 "Hg10 mi
6:20 pm82 °FSunny.7 mph62%29.94 "Hg10 mi
5:55 pm82 °FSunny.7 mph63%29.94 "Hg10 mi
5:40 pm80 °FSunny.6 mph69%29.94 "Hg10 mi
5:20 pm79 °FSunny.No wind70%29.94 "Hg10 mi
4:55 pm79 °FSunny.3 mph70%29.94 "Hg10 mi
4:40 pm80 °FSunny.5 mph67%29.95 "Hg10 mi
4:20 pm81 °FScattered clouds.8 mph65%29.95 "Hg10 mi
4:00 pm83 °FScattered clouds.3 mph59%29.95 "Hg10 mi
3:20 pm83 °FSunny.3 mph63%29.97 "Hg10 mi
3:00 pm79 °FSunny.No wind74%29.97 "Hg10 mi
2:20 pm72 °FLight rain. Broken clouds.5 mph83%30.00 "Hg10 mi
1:55 pm83 °FScattered clouds.7 mph58%29.99 "Hg10 mi
1:15 pm82 °FScattered clouds.6 mph62%30.01 "Hg10 mi
1:00 pm82 °FSunny.6 mph65%30.02 "Hg10 mi
12:20 pm80 °FScattered clouds.3 mph69%30.03 "Hg10 mi
11:55 am80 °FScattered clouds.3 mph71%30.04 "Hg10 mi
11:35 am79 °FSunny.6 mph72%30.04 "Hg10 mi
11:20 am79 °FSunny.5 mph72%30.04 "Hg10 mi
11:00 am77 °FSunny.5 mph73%30.04 "Hg10 mi
10:40 am76 °FSunny.7 mph76%30.05 "Hg10 mi
10:20 am75 °FSunny.7 mph76%30.06 "Hg10 mi
10:00 am75 °FSunny.5 mph77%30.06 "Hg10 mi
9:20 am72 °FScattered clouds.6 mph81%30.06 "Hg10 mi
9:00 am72 °FScattered clouds.6 mph83%30.06 "Hg10 mi
8:20 am70 °FSunny.3 mph86%30.06 "Hg10 mi
8:00 am69 °FSunny.No wind87%30.06 "Hg10 mi
7:35 am69 °FSunny.No wind88%30.05 "Hg10 mi
7:20 am68 °FSunny.No wind88%30.05 "Hg10 mi
6:55 am67 °FSunny.No wind88%30.05 "Hg10 mi
6:40 am67 °FSunny.No wind89%30.04 "Hg10 mi
6:20 am67 °FSunny.No wind88%30.04 "Hg10 mi
6:00 am68 °FClear.No wind86%30.04 "Hg10 mi
5:40 am68 °FClear.No wind86%30.03 "Hg10 mi
5:20 am68 °FClear.No wind84%30.04 "Hg10 mi
5:00 am69 °FClear.No wind83%30.03 "Hg10 mi
4:20 am69 °FPassing clouds.No wind82%30.04 "Hg10 mi
4:00 am70 °FPassing clouds.3 mph81%30.04 "Hg10 mi
3:30 am70 °FPassing clouds.3 mph74%30.03 "Hg10 mi
3:15 am70 °FPassing clouds.No wind71%30.04 "Hg10 mi
2:55 am70 °FPassing clouds.No wind70%30.04 "Hg10 mi
2:00 am71 °FPassing clouds.No wind67%30.04 "Hg10 mi
Weather by CustomWeather, © 2019

See weather overview